Location: ???????
(38.3360°N, 23.6977°E)
Time: 22:42:46
(UTC+00:00)

IRS-1C - Pass Details

Date: 17 November 2025
Orbit: 813 x 814 km, 99.0° (Epoch: 09 December)

Event Time Altitude Azimuth Distance (km) Brightness Sun altitude
Rises 15:52:58 0° 160° (SSE) 3,323 7.3 -8.5°
Reaches altitude 10° 15:55:17 10° 158° (SSE) 2,395 6.5 -8.9°
Maximum altitude 16:00:34 75° 75° (ENE) 845 4.1 -9.9°
Drops below altitude 10° 16:05:53 10° 350° (N) 2,410 6.5 -10.9°
Sets 16:08:14 0° 349° (N) 3,345 7.3 -11.4°
